[[{"header":{"parameterUnit":"m.s-1","parameterCategory":1,"la1":30.2991,"la2":30.254,"lo1":-89.0895,"lo2":-89.0444,"dy":0.0017,"dx":0.0017,"nx":28,"ny":28,"refTime":"2025-04-13T09:00:00:Z","depth":0,"parameterNumber":2,"parameterNumberName":"U-component_of_WINDS"},"data":[0,0,0,0,0,0,0,0,0,0,0,0,0,0,0,0,0,0,0,0,0,0,0,0,0,0,0,0,0,0,0,0,0,0,0,0,0,0,0,0,0,0,0,0,0,0,0,0,0,0,0,0,0,0,0,0,0,0,0.9256,0.9256,0,0.9255,0.9255,0.9255,0.9192,0.919,0.9189,0.9187,0.9189,0.9191,0.9192,0,0,0,0,0,0,0,0,0,0,0,0,0,0.9207,0.9208,0.9256,0.9256,0.9256,0.9255,0.9255,0.9255,0.9192,0.919,0.9188,0.9187,0.9189,0.9191,0.9192,0,0,0,0,0,0,0,0,0,0,0,0,0,0.9219,0.9208,0.9256,0.9225,0.9222,0.9255,0.9255,0.9255,0.9193,0.919,0.9188,0.9186,0.9188,0.919,0.9193,0.9256,0,0,0.92,0.9201,0,0,0,0,0,0,0,0,0.9218,0.9221,0.923,0.9227,0.9224,0.9221,0.9238,0.9255,0.9193,0.9204,0.9187,0.9184,0.9202,0.9203,0.9208,0.9257,0.9257,0.92,0.9202,0.9203,0.9203,0,0,0,0,0,0,0,0.9218,0.9221,0.9256,0.923,0.9226,0.9211,0.921,0.9241,0.9217,0.9203,0.9198,0.9199,0.92,0.9206,0.9208,0.9257,0.92,0.9202,0.9204,0.9205,0.9354,0.9357,0,0,0,0,0,0,0.9221,0.922,0.9256,0.9256,0.9215,0.9214,0.9213,0.9225,0.9216,0.9213,0.9201,0.9196,0.9203,0.9205,0.9208,0.928,0.9203,0.9205,0.9206,0.9352,0.9355,0.9358,0,0,0,0,0,0,0.922,0.9225,0.9256,0.9237,0.924,0.9218,0.9231,0.9226,0.9232,0.9215,0.9211,0.9212,0.9201,0.9204,0.9244,0.9279,0.9206,0.9208,0.9349,0.9353,0.9356,0.9427,0,0,0,0,0,0,0.9219,0.9225,0.9249,0.9238,0.9241,0.9292,0.9233,0.9228,0.9236,0.9229,0.9224,0.922,0.92,0.9241,0.9246,0.9281,0.921,0.9346,0.9351,0.9355,0.9421,0.9433,0.9442,0,0,0,0,0,0.9217,0.927,0.925,0.9255,0.927,0.9294,0.9296,0.927,0.9239,0.9263,0.9251,0.9221,0.9274,0.9245,0.9251,0.9287,0.9343,0.9349,0.9355,0.9416,0.943,0.9442,0,0,0,0,0,0,0.9288,0.9268,0.9246,0.9296,0.9297,0.9284,0.9313,0.9286,0.9297,0.9291,0.9259,0.9258,0.9303,0.9299,0.9267,0.9347,0.9303,0.931,0.9348,0.9361,0.9372,0.9372,0.9212,0,0,0,0,0,0.9309,0.9329,0.9311,0.9357,0.9359,0.9336,0.9346,0.9325,0.9325,0.9326,0.9317,0.9319,0.9336,0.9349,0.9364,0.942,0.9417,0.9448,0.9458,0.9467,0.9474,0.9501,0.9514,0.9377,0.9377,0.9376,0,0,0.9353,0.9345,0.936,0.9371,0.9369,0.9391,0.9337,0.9363,0.9379,0.933,0.9366,0.936,0.936,0.9408,0.9428,0.9406,0.9511,0.9474,0.9481,0.9483,0.9509,0.9522,0.9533,0.938,0.938,0.9379,0,0,0.9445,0.9441,0.9478,0.9477,0.9474,0.9458,0.9467,0.9456,0.945,0.9485,0.9448,0.9467,0.9497,0.9498,0.9503,0.9591,0.9563,0.9597,0.9653,0.968,0.9691,0.97,0.9731,0.9743,0.9604,0.9604,0.9604,0,0.9501,0.9532,0.9501,0.9529,0.9534,0.9489,0.9526,0.9526,0.9529,0.9534,0.9508,0.9544,0.9541,0.9587,0.9608,0.9614,0.9623,0.9598,0.9692,0.9701,0.9709,0.9738,0.975,0.9608,0.9608,0.9607,0.9607,0,0.96,0.9622,0.9653,0.9654,0.9663,0.9696,0.9669,0.9682,0.966,0.9647,0.9682,0.9676,0.9688,0.9698,0.9678,0.9741,0.9727,0.9697,0.9652,0.9727,0.9754,0.9765,0.9614,0.9613,0.9611,0.961,0,0,0.9739,0.972,0.9732,0.9731,0.9723,0.974,0.9769,0.9779,0.979,0.9793,0.9817,0.9842,0.9813,0.9819,0.9798,0.9822,0.9891,0.9789,0.9788,0.9808,0.9959,0.9981,0.9995,0.9872,0.9874,0.9875,0.9959,0,0.9828,0.9876,0.9848,0.9901,0.992,0.9875,0.99,0.9898,0.9886,0.9901,0.9887,0.9905,0.9867,0.9869,0.9891,0.9878,0.9921,0.9872,0.9894,0.9895,0.9896,1.0009,1.0033,1.0112,0.9969,0.9971,0.9972,0,0.9938,0.9943,0.9997,0.9982,0.9989,1.0013,1.0018,1.0033,1.0029,1.0018,1.0022,0.9995,1.0023,0.9977,1.0015,0.9982,0.9989,0.9984,0.9987,0.9988,0.9939,1.0013,1.0137,1.0149,0.9988,0.9987,0.9986,0,1.0032,1.0053,1.0087,1.0088,1.0072,1.0089,1.0084,1.0077,1.0084,1.0089,1.0093,1.0102,1.0107,1.0115,1.009,1.006,1.0131,1.0084,1.0123,1.0123,1.0141,1.014,1.0267,1.0145,1.0145,1.0145,1.0145,0,1.0134,1.0169,1.0129,1.015,1.0187,1.0154,1.0192,1.0182,1.0176,1.0194,1.0157,1.0175,1.0141,1.0156,1.0137,1.0171,1.0174,1.0166,1.016,1.0169,1.017,1.0174,1.0168,1.0148,1.0147,1.0147,1.0146,0,1.0247,1.0222,1.0256,1.0237,1.0233,1.0261,1.0245,1.0264,1.0248,1.0272,1.0275,1.0251,1.0266,1.0241,1.0255,1.0242,1.0288,1.0274,1.0289,1.0285,1.0325,1.0321,1.0459,1.0475,1.0343,1.0345,1.0346,0,1.0314,1.0339,1.0322,1.033,1.0326,1.0342,1.0347,1.0315,1.0323,1.0318,1.0338,1.0349,1.0357,1.0383,1.0367,1.0377,1.0363,1.041,1.0364,1.0372,1.0363,1.0362,1.0364,1.042,1.0422,1.0423,1.0424,0,1.0435,1.042,1.0429,1.0434,1.0441,1.0443,1.0443,1.0453,1.0418,1.0429,1.0443,1.0448,1.046,1.0472,1.0477,1.0472,1.0442,1.0438,1.0448,1.0457,1.0465,1.0461,1.0315,1.0436,1.0435,1.0434,1.0433,1.0433,1.0526,1.0546,1.0536,1.0547,1.0542,1.0542,1.0558,1.0543,1.0553,1.0559,1.0539,1.0558,1.0551,1.0554,1.0551,1.0566,1.0545,1.0559,1.0562,1.0566,1.0572,1.0462,1.0567,1.0566,1.0566,1.0565,1.0565,0,1.0645,1.0635,1.0645,1.0645,1.0653,1.0622,1.0619,1.0629,1.0645,1.064,1.0647,1.0663,1.0673,1.0657,1.0665,1.0679,1.0666,1.0682,1.0681,1.068,1.0591,1.0581,1.0693,1.0693,1.0693,1.0693,1.0693,1.0693,1.0707,1.0738,1.0722,1.0749,1.074,1.0756,1.0757,1.0756,1.0752,1.077,1.0778,1.0766,1.0757,1.0763,1.0771,1.0766,1.0771,1.0792,1.0782,1.0699,1.0687,1.0675,1.0666,1.0793,1.0793,1.087,1.0871,1.0872]},{"header":{"parameterUnit":"m.s-1","parameterCategory":1,"la1":30.2991,"la2":30.254,"lo1":-89.0895,"lo2":-89.0444,"dy":0.0017,"dx":0.0017,"nx":28,"ny":28,"refTime":"2025-04-13T09:00:00:Z","depth":0,"parameterNumber":3,"parameterNumberName":"V-component_of_WINDS"},"data":[0,0,0,0,0,0,0,0,0,0,0,0,0,0,0,0,0,0,0,0,0,0,0,0,0,0,0,0,0,0,0,0,0,0,0,0,0,0,0,0,0,0,0,0,0,0,0,0,0,0,0,0,0,0,0,0,0,0,5.5414,5.5415,0,5.5497,5.5498,5.5499,5.5441,5.5438,5.5436,5.5433,5.5511,5.5516,5.552,0,0,0,0,0,0,0,0,0,0,0,0,0,5.5198,5.5202,5.5414,5.5415,5.5416,5.5497,5.5498,5.55,5.5441,5.5438,5.5435,5.5432,5.551,5.5515,5.552,0,0,0,0,0,0,0,0,0,0,0,0,0,5.5287,5.5204,5.5414,5.5397,5.5397,5.5497,5.5498,5.55,5.5442,5.5438,5.5434,5.543,5.5508,5.5515,5.5521,5.5641,0,0,5.5542,5.5545,0,0,0,0,0,0,0,0,5.5282,5.5295,5.5399,5.5399,5.5398,5.5455,5.5451,5.5547,5.5443,5.5424,5.5433,5.5428,5.5495,5.5503,5.5527,5.5644,5.5648,5.5542,5.5546,5.5549,5.5551,0,0,0,0,0,0,0,5.5276,5.5291,5.5447,5.54,5.54,5.5383,5.5392,5.5469,5.548,5.5426,5.5422,5.5433,5.5494,5.552,5.5528,5.5649,5.5542,5.5548,5.5552,5.5555,5.5867,5.5871,0,0,0,0,0,0,5.5273,5.5287,5.5444,5.5449,5.533,5.539,5.54,5.544,5.5479,5.5482,5.5436,5.543,5.5511,5.552,5.5531,5.5672,5.5549,5.5556,5.556,5.5863,5.5868,5.5873,0,0,0,0,0,0,5.5268,5.5287,5.5441,5.5367,5.5385,5.5398,5.5444,5.5444,5.547,5.5487,5.5488,5.5461,5.5508,5.5521,5.5614,5.5674,5.5559,5.5565,5.5858,5.5864,5.587,5.5956,0,0,0,0,0,0,5.5262,5.5286,5.5333,5.5369,5.539,5.5525,5.5448,5.5449,5.5483,5.5475,5.5511,5.5513,5.5506,5.5604,5.5621,5.5681,5.557,5.5852,5.5861,5.5868,5.5948,5.5964,5.5979,0,0,0,0,0,5.5255,5.5353,5.5336,5.5355,5.5449,5.5529,5.5541,5.5532,5.5488,5.5534,5.5545,5.5512,5.5665,5.5614,5.5632,5.5695,5.5849,5.5858,5.5868,5.5941,5.5961,5.5978,0,0,0,0,0,0,5.5321,5.5357,5.5339,5.5452,5.5488,5.5519,5.5577,5.5554,5.5602,5.5593,5.5578,5.5587,5.5684,5.5699,5.5642,5.5812,5.5749,5.5763,5.5799,5.5818,5.5833,5.5827,5.5576,0,0,0,0,0,5.535,5.5414,5.5441,5.5538,5.5557,5.5565,5.5599,5.559,5.5625,5.564,5.5657,5.5691,5.5747,5.5784,5.5836,5.595,5.5956,5.6002,5.6018,5.603,5.6042,5.6101,5.6122,5.5904,5.5904,5.5904,0,0,5.5408,5.5436,5.5476,5.5552,5.5579,5.5643,5.5577,5.5648,5.5695,5.5649,5.5738,5.5753,5.579,5.5894,5.594,5.5909,5.6103,5.6043,5.6053,5.6057,5.6113,5.6134,5.6152,5.591,5.5909,5.5908,0,0,5.5547,5.5575,5.5658,5.5687,5.573,5.5734,5.5754,5.5789,5.5797,5.5887,5.5854,5.5908,5.6005,5.6032,5.6059,5.6208,5.6179,5.6226,5.6305,5.6364,5.6381,5.6396,5.6447,5.6466,5.6237,5.6238,5.6238,0,5.5613,5.5711,5.5703,5.5777,5.581,5.5775,5.5858,5.5885,5.5942,5.5964,5.5929,5.605,5.6072,5.6181,5.6218,5.6241,5.6261,5.622,5.638,5.6395,5.6408,5.6457,5.6477,5.6243,5.6242,5.6242,5.6241,0,5.5789,5.5857,5.5919,5.5977,5.6017,5.6095,5.6097,5.6138,5.6126,5.6133,5.6223,5.625,5.6306,5.6332,5.6319,5.6439,5.6418,5.6382,5.6318,5.6435,5.648,5.6499,5.625,5.6248,5.6247,5.6246,0,0,5.597,5.6024,5.6046,5.6072,5.6117,5.6168,5.6243,5.6301,5.6335,5.6376,5.6436,5.652,5.6487,5.6517,5.6507,5.6559,5.6673,5.6516,5.6517,5.6542,5.6804,5.6829,5.6851,5.6655,5.6659,5.6661,5.68,0,5.6109,5.6243,5.6239,5.6362,5.6424,5.6392,5.6457,5.649,5.6499,5.6551,5.6559,5.6618,5.6571,5.6589,5.6639,5.6649,5.6725,5.6639,5.6709,5.6711,5.6698,5.6875,5.6902,5.7031,5.6818,5.6821,5.6823,0,5.6289,5.6338,5.6468,5.6504,5.6529,5.6588,5.664,5.6691,5.6727,5.6729,5.6764,5.6746,5.682,5.6756,5.6856,5.6798,5.6826,5.6835,5.684,5.6844,5.6773,5.6881,5.7073,5.7091,5.6851,5.6849,5.6847,0,5.6405,5.6503,5.6594,5.6617,5.6661,5.6703,5.6722,5.6755,5.679,5.6834,5.6856,5.6908,5.6936,5.6976,5.6971,5.6926,5.7072,5.7009,5.7074,5.7074,5.7104,5.7102,5.73,5.7127,5.7127,5.7126,5.7126,0,5.656,5.664,5.6647,5.6702,5.6791,5.6785,5.6871,5.6886,5.6916,5.6972,5.6947,5.6999,5.6992,5.7044,5.7041,5.7123,5.7136,5.7138,5.7136,5.7139,5.7139,5.7156,5.7146,5.7131,5.713,5.7129,5.7128,0,5.6704,5.6712,5.6808,5.6842,5.6853,5.6916,5.6944,5.6996,5.7003,5.7074,5.709,5.7101,5.7161,5.7161,5.7229,5.7227,5.7327,5.7315,5.7315,5.7312,5.7377,5.737,5.7591,5.7619,5.7429,5.7431,5.7433,0,5.68,5.6862,5.6904,5.6941,5.6964,5.7023,5.7059,5.7055,5.7093,5.7139,5.7184,5.7242,5.7288,5.7385,5.7397,5.7448,5.7436,5.7511,5.7444,5.7445,5.7435,5.743,5.7435,5.7523,5.7525,5.7527,5.7528,0,5.6971,5.6972,5.7026,5.7082,5.7126,5.7168,5.7208,5.7239,5.7239,5.7282,5.7344,5.738,5.7451,5.7508,5.7558,5.7575,5.7551,5.755,5.7567,5.7569,5.7566,5.7567,5.7348,5.7544,5.7542,5.7541,5.754,5.7539,5.7093,5.7145,5.7183,5.7244,5.7274,5.7311,5.7361,5.7376,5.7428,5.7487,5.7481,5.7549,5.7583,5.7648,5.767,5.7721,5.7695,5.7721,5.7727,5.7733,5.7739,5.756,5.7731,5.773,5.773,5.7729,5.7729,0,5.726,5.7283,5.7339,5.7396,5.7443,5.742,5.7463,5.7503,5.7564,5.7599,5.7645,5.7716,5.7771,5.7789,5.7841,5.7879,5.787,5.7893,5.7889,5.7893,5.776,5.7739,5.79,5.79,5.79,5.79,5.79,5.79,5.7352,5.744,5.7446,5.7547,5.7569,5.7638,5.7664,5.7697,5.7725,5.7806,5.7853,5.7865,5.7891,5.7946,5.7995,5.7999,5.8018,5.8046,5.8044,5.792,5.7902,5.7886,5.7866,5.8051,5.8051,5.8172,5.8173,5.8174]}]]